Tiempo cada hora Alisovo

Hoy, 31 Julio, Sábado

Tiempo Temperatura Precipitaciones Viento Presión Humedad
00:00 +18°C° 0 mm 3 mps 738 mmHg 84%
01:00 +18°C° 0 mm 3 mps 738 mmHg 84%
02:00 +18°C° 0 mm 2 mps 738 mmHg 83%
03:00 +18°C° 0 mm 2 mps 738 mmHg 83%
04:00 +18°C° 0 mm 2 mps 738 mmHg 83%
05:00 +18°C° 0 mm 2 mps 738 mmHg 82%
06:00 +20°C° 0 mm 3 mps 738 mmHg 74%
07:00 +22°C° 0 mm 3 mps 738 mmHg 65%
08:00 +25°C° 0 mm 3 mps 739 mmHg 57%
09:00 +27°C° 0 mm 4 mps 739 mmHg 52%
10:00 +28°C° 0 mm 5 mps 739 mmHg 47%
11:00 +29°C° 0 mm 5 mps 739 mmHg 42%
12:00 +29°C° 0 mm 5 mps 739 mmHg 42%
13:00 +30°C° 0 mm 6 mps 739 mmHg 42%
14:00 +30°C° 0 mm 6 mps 739 mmHg 42%
15:00 +30°C° 0 mm 5 mps 739 mmHg 43%
16:00 +29°C° 0 mm 5 mps 739 mmHg 45%
17:00 +29°C° 0 mm 4 mps 739 mmHg 47%
18:00 +27°C° 0 mm 3 mps 739 mmHg 53%
19:00 +25°C° 0 mm 2 mps 740 mmHg 60%
20:00 +23°C° 0 mm 2 mps 740 mmHg 67%
21:00 +22°C° 0 mm 1 mps 740 mmHg 68%
22:00 +22°C° 0 mm 1 mps 740 mmHg 68%
23:00 +21°C° 0 mm 1 mps 740 mmHg 69%

Mañana, 1 Agosto, Domingo

Tiempo Temperatura Precipitaciones Viento Presión Humedad
00:00 +21°C° 0 mm 1 mps 740 mmHg 70%
01:00 +21°C° 0 mm 1 mps 741 mmHg 70%
02:00 +21°C° 0 mm 1 mps 741 mmHg 70%
03:00 +20°C° 0 mm 2 mps 741 mmHg 70%
04:00 +20°C° 0 mm 2 mps 741 mmHg 69%
05:00 +20°C° 0 mm 2 mps 741 mmHg 69%
06:00 +22°C° 0 mm 3 mps 741 mmHg 63%
07:00 +25°C° 0 mm 3 mps 741 mmHg 58%
08:00 +27°C° 0 mm 3 mps 741 mmHg 52%
09:00 +29°C° 0 mm 4 mps 741 mmHg 47%
10:00 +32°C° 0 mm 4 mps 741 mmHg 41%
11:00 +33°C° 0 mm 4 mps 741 mmHg 36%
12:00 +34°C° 0 mm 4 mps 741 mmHg 34%
13:00 +34°C° 0 mm 5 mps 741 mmHg 32%
14:00 +35°C° 0 mm 5 mps 741 mmHg 30%
15:00 +34°C° 0 mm 4 mps 740 mmHg 33%
16:00 +34°C° 0 mm 4 mps 740 mmHg 36%
17:00 +33°C° 0 mm 3 mps 740 mmHg 39%
18:00 +30°C° 0 mm 3 mps 740 mmHg 43%
19:00 +28°C° 0 mm 2 mps 740 mmHg 47%
20:00 +26°C° 0 mm 1 mps 740 mmHg 52%
21:00 +26°C° 0 mm 2 mps 740 mmHg 51%
22:00 +26°C° 0 mm 2 mps 740 mmHg 51%
23:00 +26°C° 0 mm 2 mps 740 mmHg 51%

Pasado mañana, 2 Agosto, Lunes

Tiempo Temperatura Precipitaciones Viento Presión Humedad
00:00 +25°C° 0 mm 2 mps 739 mmHg 52%
01:00 +25°C° 0 mm 2 mps 739 mmHg 54%
02:00 +24°C° 0 mm 2 mps 739 mmHg 55%
03:00 +24°C° 0 mm 2 mps 739 mmHg 60%
04:00 +22°C° 0 mm 3 mps 739 mmHg 65%
05:00 +21°C° 0 mm 3 mps 739 mmHg 69%
06:00 +23°C° 0 mm 4 mps 739 mmHg 66%
07:00 +25°C° 0 mm 4 mps 739 mmHg 63%
08:00 +26°C° 0 mm 4 mps 739 mmHg 59%
09:00 +28°C° 0 mm 5 mps 738 mmHg 51%
10:00 +32°C° 0 mm 6 mps 738 mmHg 44%
11:00 +34°C° 0 mm 7 mps 738 mmHg 36%
12:00 +35°C° 0 mm 7 mps 738 mmHg 35%
13:00 +35°C° 0 mm 7 mps 738 mmHg 34%
14:00 +36°C° 0 mm 7 mps 737 mmHg 33%
15:00 +34°C° 0 mm 6 mps 737 mmHg 38%
16:00 +33°C° 0 mm 5 mps 736 mmHg 44%
17:00 +30°C° 0 mm 3 mps 736 mmHg 49%
18:00 +29°C° 0 mm 4 mps 736 mmHg 51%
19:00 +28°C° 0 mm 5 mps 736 mmHg 53%
20:00 +27°C° 0 mm 5 mps 735 mmHg 54%
21:00 +25°C° 0.5 mm 5 mps 736 mmHg 66%
22:00 +22°C° 0.5 mm 5 mps 736 mmHg 78%
23:00 +20°C° 0.5 mm 5 mps 736 mmHg 90%

3 Agosto, Martes

Tiempo Temperatura Precipitaciones Viento Presión Humedad
00:00 +20°C° 0 mm 5 mps 736 mmHg 91%
01:00 +19°C° 0 mm 4 mps 736 mmHg 91%
02:00 +18°C° 0 mm 4 mps 736 mmHg 92%
03:00 +17°C° 0 mm 5 mps 737 mmHg 91%
04:00 +17°C° 0 mm 5 mps 737 mmHg 90%
05:00 +17°C° 0 mm 6 mps 737 mmHg 89%
06:00 +17°C° 0 mm 6 mps 738 mmHg 86%
07:00 +19°C° 0 mm 6 mps 738 mmHg 83%
08:00 +19°C° 0 mm 6 mps 738 mmHg 80%
09:00 +20°C° 0.1 mm 6 mps 739 mmHg 75%
10:00 +21°C° 0.1 mm 6 mps 739 mmHg 69%
11:00 +22°C° 0.1 mm 6 mps 740 mmHg 64%
12:00 +22°C° 0.1 mm 6 mps 740 mmHg 60%
13:00 +23°C° 0.1 mm 5 mps 740 mmHg 56%
14:00 +25°C° 0.1 mm 5 mps 740 mmHg 52%
15:00 +25°C° 0 mm 5 mps 740 mmHg 53%
16:00 +25°C° 0 mm 5 mps 740 mmHg 53%
17:00 +23°C° 0 mm 4 mps 740 mmHg 54%
18:00 +22°C° 0.4 mm 4 mps 741 mmHg 63%
19:00 +20°C° 0.4 mm 3 mps 741 mmHg 71%
20:00 +18°C° 0.4 mm 2 mps 741 mmHg 80%
21:00 +18°C° 0.3 mm 2 mps 741 mmHg 82%
22:00 +17°C° 0.3 mm 2 mps 742 mmHg 84%
23:00 +18°C° 0.3 mm 1 mps 742 mmHg 86%

4 Agosto, Miércoles

Tiempo Temperatura Precipitaciones Viento Presión Humedad
00:00 +16°C° 0.1 mm 2 mps 742 mmHg 87%
01:00 +16°C° 0.1 mm 2 mps 742 mmHg 88%
02:00 +15°C° 0.1 mm 2 mps 742 mmHg 88%
03:00 +15°C° 0 mm 2 mps 743 mmHg 88%
04:00 +15°C° 0 mm 2 mps 743 mmHg 88%
05:00 +15°C° 0 mm 2 mps 743 mmHg 88%
06:00 +17°C° 0 mm 2 mps 743 mmHg 80%
07:00 +19°C° 0 mm 2 mps 743 mmHg 72%
08:00 +21°C° 0 mm 2 mps 744 mmHg 64%
09:00 +23°C° 0 mm 2 mps 744 mmHg 58%
10:00 +24°C° 0 mm 3 mps 744 mmHg 52%
11:00 +25°C° 0 mm 3 mps 744 mmHg 46%
12:00 +25°C° 0 mm 3 mps 744 mmHg 44%
13:00 +26°C° 0 mm 3 mps 744 mmHg 42%
14:00 +26°C° 0 mm 3 mps 744 mmHg 40%
15:00 +25°C° 0 mm 3 mps 744 mmHg 43%
16:00 +24°C° 0 mm 3 mps 744 mmHg 46%
17:00 +24°C° 0 mm 3 mps 744 mmHg 49%
18:00 +21°C° 0 mm 2 mps 744 mmHg 54%
19:00 +20°C° 0 mm 2 mps 744 mmHg 59%
20:00 +19°C° 0 mm 2 mps 744 mmHg 64%
21:00 +19°C° 0 mm 1 mps 744 mmHg 66%
22:00 +18°C° 0 mm 1 mps 745 mmHg 68%
23:00 +18°C° 0 mm 1 mps 745 mmHg 70%

5 Agosto, Jueves

Tiempo Temperatura Precipitaciones Viento Presión Humedad
00:00 +18°C° 0 mm 1 mps 745 mmHg 71%
01:00 +16°C° 0 mm 1 mps 745 mmHg 71%
02:00 +16°C° 0 mm 1 mps 745 mmHg 71%
03:00 +16°C° 0 mm 1 mps 745 mmHg 71%
04:00 +16°C° 0 mm 1 mps 745 mmHg 72%
05:00 +16°C° 0 mm 1 mps 745 mmHg 72%
06:00 +19°C° 0 mm 1 mps 745 mmHg 65%
07:00 +21°C° 0 mm 1 mps 745 mmHg 58%
08:00 +23°C° 0 mm 1 mps 745 mmHg 52%
09:00 +24°C° 0 mm 1 mps 745 mmHg 47%
10:00 +25°C° 0 mm 1 mps 745 mmHg 43%
11:00 +26°C° 0 mm 1 mps 745 mmHg 39%
12:00 +27°C° 0 mm 1 mps 745 mmHg 37%
13:00 +28°C° 0 mm 1 mps 745 mmHg 35%
14:00 +28°C° 0 mm 1 mps 744 mmHg 33%
15:00 +28°C° 0 mm 1 mps 744 mmHg 35%
16:00 +28°C° 0 mm 2 mps 744 mmHg 36%
17:00 +27°C° 0 mm 2 mps 743 mmHg 37%
18:00 +25°C° 0 mm 2 mps 743 mmHg 43%
19:00 +23°C° 0 mm 2 mps 743 mmHg 48%
20:00 +20°C° 0 mm 3 mps 743 mmHg 53%
21:00 +20°C° 0 mm 3 mps 743 mmHg 54%
22:00 +19°C° 0 mm 3 mps 743 mmHg 54%
23:00 +19°C° 0 mm 3 mps 742 mmHg 54%
Mostrar más

Necesitamos Su Consentimiento

Meteoprog y nuestros Proveedores de Servicios pueden almacenar y acceder a sus datos personales como cookies, identificadores de dispositivo u otras tecnologías similares de su dispositivo y procesar dichos datos para personalizar contenido y anuncios, además de ofrecer funciones de redes sociales y analizar el tráfico.

  • Almacenar y/o acceder a información en su dispositivo

    Se puede almacenar o acceder a cookies, identificadores de dispositivo u otra información de su dispositivo para los fines anteriormente indicados.

  • Anuncios y contenido personalizados, medición de anuncios y contenido, percepciones del público, y desarrollo de productos

    Los anuncios y el contenido pueden personalizarse en base a su perfil. Se pueden añadir más datos para personalizar mejor los anuncios y contenidos. Se puede medir el rendimiento de los anuncios y contenidos. Se puede obtener la percepción sobre el público que ha visto los anuncios y contenidos. Dichos datos pueden usarse para desarrollar o mejorar la experiencia del usuario, sistemas y software.

Al hacer clic en ‘Estoy De Acuerdo’ usted permitirá el uso de las cookies, identificadores de dispositivo, balizas web u otras tecnologías similares indicadas. Su configuración puede cambiarse desde el navegador de su dispositivo.

Para ciertos fines, los intereses legítimos pueden ser considerados por encima del consentimiento. Puede leer más sobre ello en nuestra Política de Privacidad y Cookies.